Location: Caltech
(34.1382°N, 118.1253°W)
Time: 15:32:25
(UTC-07:00)

Cosmos 1408 Rocket - Visible Passes

Search period start: 26 May 2016 00:00
Search period end: 05 June 2016 00:00
Orbit: 602 x 630 km, 82.6° (Epoch: 26 May)

Date Brightness Start Highest point End Pass type
(mag) Time Alt. Az. Time Alt. Az. Time Alt. Az.
26 May 6.0 01:11:56 19° NNW 01:11:56 19° NNW 01:13:26 10° NNW visible
26 May 6.1 23:51:09 16° NE 23:51:09 16° NE 23:52:12 10° NNE visible
27 May 6.3 01:28:14 13° NW 01:28:14 13° NW 01:29:08 10° NNW visible
28 May 5.8 00:07:27 22° NNE 00:07:27 22° NNE 00:09:06 10° NNE visible
29 May 5.7 00:23:43 25° N 00:23:43 25° N 00:25:38 10° N visible
29 May 6.2 23:02:54 11° NE 23:02:54 11° NE 23:03:04 10° NE visible
30 May 5.9 00:39:59 21° NNW 00:39:59 21° NNW 00:41:51 10° NNW visible
30 May 5.8 23:19:10 18° NE 23:19:10 18° NE 23:20:34 10° NNE visible
31 May 6.2 00:56:14 15° NW 00:56:14 15° NW 00:57:35 10° NNW visible
31 May 5.4 23:35:23 27° NNE 23:35:23 27° NNE 23:37:29 10° NNE visible
01 Jun 5.3 23:51:37 31° N 23:51:37 31° N 23:54:03 10° N visible
02 Jun 6.0 22:30:44 12° ENE 22:30:44 12° ENE 22:31:23 10° NE visible
03 Jun 5.5 00:07:49 26° NW 00:07:49 26° NW 00:10:17 10° NNW visible
03 Jun 5.4 22:46:55 22° NE 22:46:55 22° NE 22:48:56 10° NNE visible
04 Jun 6.0 00:24:00 17° NW 00:24:00 17° NW 00:26:02 10° NNW visible
04 Jun 4.8 23:03:05 36° NNE 23:03:05 36° NNE 23:05:52 10° NNE visible
